Regional Weather Roundup
Issued by NWS State College, PA

Home | Current Version | Previous Version | Text Only | Print | Product List | Glossary On
Versions: 1 2 3 4 5 6 7 8 9 10 11 12 13 14 15 16 17 18 19 20 21 22 23 24 25 26 27 28 29 30 31 32 33 34 35 36 37 38 39 40 41 42 43 44 45 46 47 48 49 50
000
ASUS41 KCTP 172110
RWRCTP

REGIONAL WEATHER ROUNDUP
NATIONAL WEATHER SERVICE STATE COLLEGE PA
500 PM EDT THU AUG 17 2017

Note: "fair" indicates few or no clouds below 12,000 feet with no
significant weather and/or obstructions to visibility.

* = STATION THAT DOES NOT REPORT PRECIPITATION /E.G. RAIN...SNOW...ETC/
    THUNDER OR FOG.

PAZ002>004-007>009-013>016-020>023-029>032-172200-
WESTERN PENNSYLVANIA

CITY           SKY/WX    TMP DP  RH WIND       PRES   REMARKS
ERIE           CLOUDY    85  70  60 S8        29.82F
MEADVILLE      MOSUNNY   83  72  69 S8        29.87F
FRANKLIN*      MOSUNNY   82  66  57 S10       29.90F
NEW CASTLE     FAIR      84  72  67 S8        29.88F
BEAVER COUNTY  MOSUNNY   86  72  62 S12       29.89F
BUTLER*        PTSUNNY   85  72  65 S7        29.91F
PITTSBURGH INT PTSUNNY   80  76  87 SW8       29.89F
PITTSBURGH       N/A     83  68  60 MISG      29.90F
INDIANA*       NOT AVBL
LATROBE        PTSUNNY   86  68  54 SW8       29.92F
WASHINGTON CO* PTSUNNY   82  70  65 CALM      29.91S THUNDER
$$

PAZ004>006-010>012-017>019-024>028-033>037-041-042-045-046-049>053-172200-
CENTRAL PENNSYLVANIA

CITY           SKY/WX    TMP DP  RH WIND       PRES   REMARKS
BRADFORD       CLOUDY    79  67  66 S6        29.95F
DUBOIS         CLOUDY    83  65  54 S7        29.94F
CLEARFIELD     CLOUDY    83  68  60 S6        29.94F
JOHNSTOWN      PTSUNNY   82  68  62 SE7       29.98F
ALTOONA        MOSUNNY   83  70  64 S8        29.96F
STATE COLLEGE  MOSUNNY   81  70  69 S7        29.95F
WILLIAMSPORT   PTSUNNY   85  70  60 S9        29.91F
SELINSGROVE    SUNNY     84  72  67 S6        29.94F
FT INDIANTOWN  PTSUNNY   84  70  63 S7        29.93F
CAPITAL CITY   SUNNY     87  71  58 E9        29.92F
HARRISBURG     PTSUNNY   85  74  69 SE8       29.92F
YORK           PTSUNNY   86  75  69 SE8       29.93F HX  95
$$

PAZ038>040-043-044-047-048-054-055-060>062-067>071-172200-
EASTERN PENNSYLVANIA

CITY           SKY/WX    TMP DP  RH WIND       PRES   REMARKS
SCRANTON       PTSUNNY   82  64  54 VRB5      29.97F
MOUNT POCONO   SUNNY     76  63  64 S9        30.03F
ALLENTOWN      MOSUNNY   86  64  47 S9        29.96F
QUAKERTOWN*    CLEAR     86  64  48 S5        29.98F
READING        PTSUNNY   85  70  60 SE8       29.94F
LANCASTER      PTSUNNY   84  73  69 SE8       29.94F
COATESVILLE    PTCLDY    82  68  61 VRB6      29.98F
POTTSTOWN      MOSUNNY   84  66  54 S5        29.97F
BLUE BELL      MOSUNNY   84  64  51 SE5       29.97S
DOYLESTOWN     SUNNY     85  65  51 NE3       29.96F
WILLOW GROVE   NOT AVBL
NORTH PHILA    MOSUNNY   87  66  49 SE14      29.96F
PHILADELPHIA   MOSUNNY   86  66  51 S8        29.95F
$$




USA.gov is the U.S. government's official web portal to all federal, state and local government web resources and services.